Torna al catalogo

STARLINK-35701

AttivoComunicazioniVLEO
NORAD 67118·PAYLOAD·🇺🇸 United States

Lanciato Dec 15, 2025 da Cape Canaveral Space Force Station

Loading…

Prossimi Passaggi (prossime 24 ore)

TLE

AggiornatoSource: CelesTrak SupGP

Epoca: Sep 15, 2026, 03:40 UTC

1 67118C 25299S   26258.15326389  .00010774  00000+0  39030-3 0  2584
2 67118  42.9998 178.7866 0001264 269.5776 128.4144 15.27568919    12

Traccia STARLINK-35701 in tempo reale con AllMySat

Download on the App Store